Tracking 22438 objects as of 24-Feb-2021
HD Live streaming from Space Station
objects crossing your sky now

DELTA 1 DEB

Track DELTA 1 DEB now!
10-day predictions


NORAD ID: 21319
Int'l Code: 1975-052AM
Perigee: 1,065.7 km
Apogee: 1,428.1 km
Inclination: 99.7 °
Period: 110.3 minutes
Semi major axis: 7617 km
RCS: 0.0592 m2 (small)
Launch date: June 12, 1975
Source: United States (US)
Launch site: AIR FORCE WESTERN TEST RANGE (AFWTR)

Note: This is SATELLITE DEBRIS
aabbcc
Your satellite tracking list
Your tracking list is empty




NASA's NSSDC Master Catalog

Two Line Element Set (TLE):
1 21319U 75052AM  21055.35868194 -.00000165  00000-0 -33695-3 0  9995
2 21319  99.6707  29.9829 0237860 341.8638 179.9595 13.05725274417074
Source of the keplerian elements: AFSPC